Time,TemperatureF,DewpointF,PressureIn,WindDirection,WindDirectionDegrees,WindSpeedMPH,WindSpeedGustMPH,Humidity,HourlyPrecipIn,Conditions,Clouds,dailyrainin,SoftwareType,DateUTC
2013-03-29 00:00:00,64.8,57.0,30.04,SSE,155,8.0,-999.0,76,-99.99,,,0.00,weatherlink.com 1.10,2013-03-29 05:00:00,
2013-03-29 00:15:00,64.3,57.0,30.05,SSE,161,4.0,-999.0,77,-99.99,,,0.00,weatherlink.com 1.10,2013-03-29 05:15:00,
2013-03-29 00:30:00,63.9,57.0,30.04,SSE,165,7.0,-999.0,78,-99.99,,,0.00,weatherlink.com 1.10,2013-03-29 05:30:00,
2013-03-29 00:45:00,63.6,57.0,30.05,SSE,160,8.0,-999.0,79,-99.99,,,0.00,weatherlink.com 1.10,2013-03-29 05:45:00,
2013-03-29 01:00:00,63.6,57.0,30.05,South,173,8.0,-999.0,79,-99.99,,,0.00,weatherlink.com 1.10,2013-03-29 06:00:00,
2013-03-29 01:15:00,63.6,57.0,30.04,SSE,161,7.0,-999.0,79,-99.99,,,0.00,weatherlink.com 1.10,2013-03-29 06:15:00,
2013-03-29 01:30:00,63.6,57.0,30.05,SSE,161,7.0,-999.0,79,-99.99,,,0.00,weatherlink.com 1.10,2013-03-29 06:30:00,
2013-03-29 01:45:00,63.5,57.0,30.04,SSE,154,9.0,-999.0,80,-99.99,,,0.00,weatherlink.com 1.10,2013-03-29 06:45:00,
2013-03-29 02:00:00,63.0,57.0,30.04,SSE,149,10.0,-999.0,80,-99.99,,,0.00,weatherlink.com 1.10,2013-03-29 07:00:00,
2013-03-29 02:15:00,62.3,56.0,30.04,South,171,8.0,-999.0,81,-99.99,,,0.00,weatherlink.com 1.10,2013-03-29 07:15:00,
2013-03-29 02:30:00,61.9,56.0,30.04,SSE,163,8.0,-999.0,82,-99.99,,,0.00,weatherlink.com 1.10,2013-03-29 07:30:00,
2013-03-29 02:45:00,61.4,56.0,30.04,SSE,162,7.0,-999.0,83,-99.99,,,0.00,weatherlink.com 1.10,2013-03-29 07:45:00,
2013-03-29 03:00:00,61.2,56.0,30.04,SSE,159,6.0,-999.0,84,-99.99,,,0.00,weatherlink.com 1.10,2013-03-29 08:00:00,
2013-03-29 03:15:00,61.1,56.0,30.04,SSE,156,6.0,-999.0,84,-99.99,,,0.00,weatherlink.com 1.10,2013-03-29 08:15:00,
2013-03-29 03:30:00,61.1,56.0,30.04,South,173,10.0,-999.0,84,-99.99,,,0.00,weatherlink.com 1.10,2013-03-29 08:30:00,
2013-03-29 03:45:00,61.7,57.0,30.04,South,188,5.0,-999.0,84,-99.99,,,0.00,weatherlink.com 1.10,2013-03-29 08:45:00,
2013-03-29 04:00:00,62.2,57.0,30.04,South,183,6.0,-999.0,82,-99.99,,,0.00,weatherlink.com 1.10,2013-03-29 09:00:00,
2013-03-29 04:15:00,62.0,57.0,30.03,South,176,16.0,-999.0,83,-99.99,,,0.00,weatherlink.com 1.10,2013-03-29 09:15:00,
2013-03-29 04:30:00,61.8,57.0,30.03,SSW,196,7.0,-999.0,83,-99.99,,,0.00,weatherlink.com 1.10,2013-03-29 09:30:00,
2013-03-29 04:45:00,61.6,56.0,30.03,South,178,8.0,-999.0,83,-99.99,,,0.00,weatherlink.com 1.10,2013-03-29 09:45:00,
2013-03-29 05:00:00,61.2,56.0,30.03,SSE,155,13.0,-999.0,84,-99.99,,,0.00,weatherlink.com 1.10,2013-03-29 10:00:00,
2013-03-29 05:15:00,60.8,56.0,30.03,SSE,153,11.0,-999.0,84,-99.99,,,0.00,weatherlink.com 1.10,2013-03-29 10:15:00,
2013-03-29 05:30:00,60.4,56.0,30.03,SSE,159,8.0,-999.0,85,-99.99,,,0.00,weatherlink.com 1.10,2013-03-29 10:30:00,
2013-03-29 05:45:00,59.8,55.0,30.03,SSE,162,6.0,-999.0,85,-99.99,,,0.00,weatherlink.com 1.10,2013-03-29 10:45:00,
2013-03-29 06:00:00,59.4,56.0,30.03,South,174,7.0,-999.0,87,-99.99,,,0.00,weatherlink.com 1.10,2013-03-29 11:00:00,
2013-03-29 06:15:00,59.3,56.0,30.04,South,175,9.0,-999.0,87,-99.99,,,0.00,weatherlink.com 1.10,2013-03-29 11:15:00,
2013-03-29 06:30:00,59.4,56.0,30.04,South,169,10.0,-999.0,87,-99.99,,,0.00,weatherlink.com 1.10,2013-03-29 11:30:00,
2013-03-29 06:45:00,59.5,56.0,30.05,SSE,159,6.0,-999.0,87,-99.99,,,0.00,weatherlink.com 1.10,2013-03-29 11:45:00,
2013-03-29 07:00:00,59.5,56.0,30.05,SSE,156,9.0,-999.0,87,-99.99,,,0.00,weatherlink.com 1.10,2013-03-29 12:00:00,
2013-03-29 07:15:00,59.5,56.0,30.06,SSE,166,5.0,-999.0,87,-99.99,,,0.00,weatherlink.com 1.10,2013-03-29 12:15:00,
2013-03-29 07:30:00,59.6,56.0,30.07,SSE,165,4.0,-999.0,87,-99.99,,,0.00,weatherlink.com 1.10,2013-03-29 12:30:00,
2013-03-29 07:45:00,59.6,56.0,30.07,SSE,150,8.0,-999.0,87,-99.99,,,0.00,weatherlink.com 1.10,2013-03-29 12:45:00,
2013-03-29 08:00:00,59.5,56.0,30.08,SSE,166,9.0,-999.0,87,-99.99,,,0.00,weatherlink.com 1.10,2013-03-29 13:00:00,
2013-03-29 08:15:00,59.5,56.0,30.09,SSE,148,9.0,-999.0,87,-99.99,,,0.00,weatherlink.com 1.10,2013-03-29 13:15:00,
2013-03-29 08:30:00,59.7,56.0,30.09,South,174,7.0,-999.0,87,-99.99,,,0.00,weatherlink.com 1.10,2013-03-29 13:30:00,
2013-03-29 08:45:00,60.0,56.0,30.09,SE,138,7.0,-999.0,86,-99.99,,,0.00,weatherlink.com 1.10,2013-03-29 13:45:00,
2013-03-29 09:00:00,60.6,56.0,30.09,SSE,167,9.0,-999.0,85,-99.99,,,0.00,weatherlink.com 1.10,2013-03-29 14:00:00,
2013-03-29 09:15:00,60.7,56.0,30.09,South,174,5.0,-999.0,85,-99.99,,,0.00,weatherlink.com 1.10,2013-03-29 14:15:00,
2013-03-29 09:30:00,61.2,56.0,30.10,SSE,159,7.0,-999.0,84,-99.99,,,0.00,weatherlink.com 1.10,2013-03-29 14:30:00,
2013-03-29 09:45:00,61.7,57.0,30.09,SSE,165,7.0,-999.0,83,-99.99,,,0.00,weatherlink.com 1.10,2013-03-29 14:45:00,
2013-03-29 10:00:00,62.2,57.0,30.09,South,182,11.0,-999.0,82,-99.99,,,0.00,weatherlink.com 1.10,2013-03-29 15:00:00,
2013-03-29 10:15:00,62.9,57.0,30.09,SSW,192,16.0,-999.0,80,-99.99,,,0.00,weatherlink.com 1.10,2013-03-29 15:15:00,
2013-03-29 10:30:00,63.4,56.0,30.09,SSE,167,8.0,-999.0,78,-99.99,,,0.00,weatherlink.com 1.10,2013-03-29 15:30:00,
2013-03-29 10:45:00,64.0,57.0,30.09,SSW,196,10.0,-999.0,78,-99.99,,,0.00,weatherlink.com 1.10,2013-03-29 15:45:00,
2013-03-29 11:00:00,64.7,56.0,30.09,SSE,148,9.0,-999.0,74,-99.99,,,0.00,weatherlink.com 1.10,2013-03-29 16:00:00,
2013-03-29 11:15:00,65.4,56.0,30.09,South,174,8.0,-999.0,72,-99.99,,,0.00,weatherlink.com 1.10,2013-03-29 16:15:00,
2013-03-29 11:30:00,67.1,57.0,30.08,South,180,5.0,-999.0,70,-99.99,,,0.00,weatherlink.com 1.10,2013-03-29 16:30:00,
2013-03-29 11:45:00,66.7,56.0,30.08,SE,146,15.0,-999.0,69,-99.99,,,0.00,weatherlink.com 1.10,2013-03-29 16:45:00,
2013-03-29 12:00:00,67.5,57.0,30.08,SSW,201,10.0,-999.0,68,-99.99,,,0.00,weatherlink.com 1.10,2013-03-29 17:00:00,
2013-03-29 12:15:00,67.4,56.0,30.07,South,190,11.0,-999.0,67,-99.99,,,0.00,weatherlink.com 1.10,2013-03-29 17:15:00,
2013-03-29 12:30:00,68.4,57.0,30.07,SSE,156,13.0,-999.0,68,-99.99,,,0.00,weatherlink.com 1.10,2013-03-29 17:30:00,
2013-03-29 12:45:00,69.1,57.0,30.06,SSE,149,6.0,-999.0,65,-99.99,,,0.00,weatherlink.com 1.10,2013-03-29 17:45:00,
2013-03-29 13:00:00,69.4,57.0,30.05,South,190,7.0,-999.0,65,-99.99,,,0.00,weatherlink.com 1.10,2013-03-29 18:00:00,
2013-03-29 13:15:00,70.1,58.0,30.05,SSW,195,10.0,-999.0,65,-99.99,,,0.00,weatherlink.com 1.10,2013-03-29 18:15:00,
2013-03-29 13:30:00,70.5,58.0,30.04,South,169,5.0,-999.0,64,-99.99,,,0.00,weatherlink.com 1.10,2013-03-29 18:30:00,
2013-03-29 13:45:00,71.3,57.0,30.04,SSW,201,3.0,-999.0,61,-99.99,,,0.00,weatherlink.com 1.10,2013-03-29 18:45:00,
2013-03-29 14:00:00,72.6,57.0,30.02,SSE,150,11.0,-999.0,58,-99.99,,,0.00,weatherlink.com 1.10,2013-03-29 19:00:00,
2013-03-29 14:15:00,72.8,57.0,30.02,SW,225,7.0,-999.0,59,-99.99,,,0.00,weatherlink.com 1.10,2013-03-29 19:15:00,
2013-03-29 14:30:00,73.9,57.0,30.01,South,171,11.0,-999.0,55,-99.99,,,0.00,weatherlink.com 1.10,2013-03-29 19:30:00,
2013-03-29 14:45:00,74.1,56.0,30.00,South,183,6.0,-999.0,54,-99.99,,,0.00,weatherlink.com 1.10,2013-03-29 19:45:00,
2013-03-29 15:00:00,74.1,56.0,30.00,SSW,203,12.0,-999.0,54,-99.99,,,0.00,weatherlink.com 1.10,2013-03-29 20:00:00,
2013-03-29 15:15:00,74.0,57.0,29.99,SW,214,9.0,-999.0,55,-99.99,,,0.00,weatherlink.com 1.10,2013-03-29 20:15:00,
2013-03-29 15:30:00,74.9,57.0,29.99,SW,214,17.0,-999.0,54,-99.99,,,0.00,weatherlink.com 1.10,2013-03-29 20:30:00,
2013-03-29 15:45:00,74.5,57.0,29.98,SW,218,14.0,-999.0,55,-99.99,,,0.00,weatherlink.com 1.10,2013-03-29 20:45:00,
2013-03-29 16:00:00,74.1,57.0,29.98,South,173,6.0,-999.0,56,-99.99,,,0.00,weatherlink.com 1.10,2013-03-29 21:00:00,
2013-03-29 16:15:00,73.9,57.0,29.98,South,184,7.0,-999.0,55,-99.99,,,0.00,weatherlink.com 1.10,2013-03-29 21:15:00,
2013-03-29 16:30:00,73.5,58.0,29.98,SSE,165,11.0,-999.0,58,-99.99,,,0.00,weatherlink.com 1.10,2013-03-29 21:30:00,
2013-03-29 16:45:00,73.6,58.0,29.98,SSE,148,11.0,-999.0,58,-99.99,,,0.00,weatherlink.com 1.10,2013-03-29 21:45:00,
2013-03-29 17:00:00,73.4,58.0,29.97,SSE,162,6.0,-999.0,59,-99.99,,,0.00,weatherlink.com 1.10,2013-03-29 22:00:00,
2013-03-29 17:15:00,73.3,58.0,29.98,South,187,13.0,-999.0,59,-99.99,,,0.00,weatherlink.com 1.10,2013-03-29 22:15:00,
2013-03-29 17:30:00,72.8,58.0,29.98,SSE,163,12.0,-999.0,60,-99.99,,,0.00,weatherlink.com 1.10,2013-03-29 22:30:00,
2013-03-29 17:45:00,72.4,58.0,29.97,SE,145,9.0,-999.0,61,-99.99,,,0.00,weatherlink.com 1.10,2013-03-29 22:45:00,
2013-03-29 18:00:00,72.5,59.0,29.97,SE,146,13.0,-999.0,62,-99.99,,,0.00,weatherlink.com 1.10,2013-03-29 23:00:00,
2013-03-29 18:15:00,72.7,59.0,29.98,South,169,6.0,-999.0,62,-99.99,,,0.00,weatherlink.com 1.10,2013-03-29 23:15:00,
2013-03-29 18:30:00,72.4,58.0,29.97,SSE,154,9.0,-999.0,61,-99.99,,,0.00,weatherlink.com 1.10,2013-03-29 23:30:00,
2013-03-29 18:45:00,72.3,58.0,29.98,SE,140,11.0,-999.0,62,-99.99,,,0.00,weatherlink.com 1.10,2013-03-29 23:45:00,
2013-03-29 19:00:00,72.2,59.0,29.97,SE,139,8.0,-999.0,63,-99.99,,,0.00,weatherlink.com 1.10,2013-03-30 00:00:00,
2013-03-29 19:15:00,72.0,59.0,29.97,SSE,157,7.0,-999.0,63,-99.99,,,0.00,weatherlink.com 1.10,2013-03-30 00:15:00,
2013-03-29 19:30:00,71.8,58.0,29.98,South,172,9.0,-999.0,63,-99.99,,,0.00,weatherlink.com 1.10,2013-03-30 00:30:00,
2013-03-29 19:45:00,71.6,58.0,29.97,SE,124,4.0,-999.0,63,-99.99,,,0.00,weatherlink.com 1.10,2013-03-30 00:45:00,
2013-03-29 20:00:00,71.3,58.0,29.97,SSE,149,4.0,-999.0,63,-99.99,,,0.00,weatherlink.com 1.10,2013-03-30 01:00:00,
2013-03-29 20:15:00,70.9,58.0,29.98,SSE,153,9.0,-999.0,64,-99.99,,,0.00,weatherlink.com 1.10,2013-03-30 01:15:00,
2013-03-29 20:30:00,70.6,58.0,29.97,SE,133,12.0,-999.0,65,-99.99,,,0.00,weatherlink.com 1.10,2013-03-30 01:30:00,
2013-03-29 20:45:00,70.4,58.0,29.98,SE,141,10.0,-999.0,65,-99.99,,,0.00,weatherlink.com 1.10,2013-03-30 01:45:00,
2013-03-29 21:00:00,70.2,58.0,29.98,SE,144,5.0,-999.0,66,-99.99,,,0.00,weatherlink.com 1.10,2013-03-30 02:00:00,
2013-03-29 21:15:00,69.9,58.0,29.99,SE,142,7.0,-999.0,67,-99.99,,,0.00,weatherlink.com 1.10,2013-03-30 02:15:00,
2013-03-29 21:30:00,69.8,59.0,29.99,SE,128,8.0,-999.0,68,-99.99,,,0.00,weatherlink.com 1.10,2013-03-30 02:30:00,
2013-03-29 21:45:00,69.4,59.0,29.98,SE,141,7.0,-999.0,69,-99.99,,,0.00,weatherlink.com 1.10,2013-03-30 02:45:00,
2013-03-29 22:00:00,69.2,59.0,29.99,SE,132,7.0,-999.0,69,-99.99,,,0.00,weatherlink.com 1.10,2013-03-30 03:00:00,
2013-03-29 22:15:00,69.0,59.0,29.98,SE,129,8.0,-999.0,70,-99.99,,,0.00,weatherlink.com 1.10,2013-03-30 03:15:00,
2013-03-29 22:30:00,68.6,59.0,29.95,SE,143,10.0,-999.0,71,-99.99,,,0.00,weatherlink.com 1.10,2013-03-30 03:30:00,
2013-03-29 22:45:00,68.4,59.0,29.95,SE,127,6.0,-999.0,71,-99.99,,,0.00,weatherlink.com 1.10,2013-03-30 03:45:00,
2013-03-29 23:00:00,67.5,59.0,29.91,SSE,149,15.0,-999.0,75,-99.99,,,0.00,weatherlink.com 1.10,2013-03-30 04:00:00,
2013-03-29 23:15:00,67.5,59.0,29.91,SE,144,17.0,-999.0,74,-99.99,,,0.00,weatherlink.com 1.10,2013-03-30 04:15:00,
2013-03-29 23:30:00,67.9,59.0,29.94,SE,145,14.0,-999.0,73,-99.99,,,0.00,weatherlink.com 1.10,2013-03-30 04:30:00,
2013-03-29 23:45:00,68.0,59.0,29.95,SSE,160,11.0,-999.0,73,-99.99,,,0.00,weatherlink.com 1.10,2013-03-30 04:45:00,